SPACEBEE-70 (48632 NORAD) Tracking and Keplerian Element Data

This shows tracking and keplerian element data for the satellite.

Feedback or suggestion? Click here.




ElementValue
Catalog48632
NameSPACEBEE-70
Epoch Orbit2901
Epoch Day214.42069194
Epoch Year2021
RAAN272.1315
Inclination97.2539
Eccentricity0.0014315
Argument of Perigee294.521
Mean Anonmoly65.453
Mean Motion15.14776029
Decay Rate2.414E-05
L11 48632U 21006EY 21214.42069194 .00002414 00000-0 13320-3 0 9990
L22 48632 97.2539 272.1315 0014315 294.5210 65.4530 15.14776029 29015

Live tracking and technical data element details for SPACEBEE-70 (NORAD 48632). SPACEBEE-70 can be tracked NOW for your location showing map with azimuth and elevation plus other details from your city location.

Track the satellite on the map from your city or location and see movement details for azimuth, elevation, latitude, longitude, range, height, and movement on the map or in text.







IsCatalogInMostPopularTable: catalog: 48632, numindb: 22
Update: records affected: 1



GetName: 48632 SPACEBEE-70

Hit Count: updated at: Wed, 04 Aug 2021 00:58:43 GMT